CARTOSAT-2A

Last updated on Thu Jul 03 2025 00:02:29 GMT+0000 (Coordinated Universal Time)

1 32783U 08021A 25183.59927050 .00000547 00000+0 81357-4 0 9993 2 32783 97.8140 238.3139 0011634 161.0703 199.0943 14.78715043927133
UTC large
Height (km)
Speed (km/s)
/
Latitude / Longitude
Inclination (degrees)
Orbital Period (minutes)
Azimuth
Elevation
Range (km)
Doppler Factor

Next 0 passes for location: London (51.5072 / 0.1276)

Sorry there are no passes over London.